QPF
0.03 0.03 0.02 0.04 0.05 0.07 0.08 0.10 0.11 0.11 0.08 0.06 0.04 0.04 0.03 0.03 0.02 0.03 0.02 0.02 0.02 0.03 0.03 0.03 0.03 0.03 0.04 0.04 0.05 0.06 0.07 0.08 0.08 0.10 0.10 0.08 0.06 0.06 0.06 0.06 0.07 0.07 0.07
0.03 0.03 0.03 0.03 0.05 0.07 0.09 0.08 0.08 0.08 0.07 0.05 0.04 0.03 0.03 0.02 0.02 0.04 0.03 0.02 0.03 0.04 0.03 0.03 0.03 0.02 0.03 0.05 0.05 0.06 0.07 0.08 0.10 0.13 0.13 0.12 0.09 0.07 0.05 0.05 0.05 0.04 0.05
0.02 0.03 0.04 0.05 0.05 0.06 0.06 0.05 0.05 0.04 0.04 0.04 0.04 0.03 0.03 0.03 0.04 0.03 0.03 0.03 0.03 0.02 0.03 0.02 0.02 0.03 0.03 0.05 0.06 0.07 0.07 0.10 0.11 0.12 0.15 0.15 0.15 0.12 0.08 0.06 0.05 0.04 0.04
0.04 0.05 0.05 0.06 0.05 0.06 0.07 0.06 0.05 0.04 0.04 0.04 0.05 0.06 0.06 0.06 0.04 0.04 0.04 0.03 0.02 0.01 0.02 0.03 0.02 0.03 0.05 0.05 0.04 0.05 0.06 0.10 0.12 0.11 0.11 0.13 0.14 0.14 0.13 0.10 0.08 0.06 0.06
0.05 0.05 0.05 0.06 0.06 0.07 0.07 0.06 0.06 0.06 0.05 0.05 0.07 0.08 0.06 0.05 0.04 0.04 0.04 0.04 0.03 0.02 0.02 0.03 0.03 0.03 0.05 0.07 0.06 0.05 0.05 0.08 0.11 0.11 0.10 0.10 0.10 0.11 0.13 0.13 0.11 0.08 0.06
0.04 0.06 0.07 0.10 0.12 0.11 0.07 0.06 0.06 0.07 0.05 0.04 0.04 0.04 0.04 0.04 0.04 0.04 0.04 0.04 0.03 0.03 0.03 0.03 0.03 0.03 0.03 0.03 0.04 0.05 0.05 0.05 0.07 0.11 0.11 0.11 0.09 0.09 0.11 0.12 0.11 0.10 0.08
0.04 0.07 0.09 0.11 0.12 0.15 0.14 0.11 0.11 0.10 0.07 0.04 0.04 0.04 0.04 0.04 0.03 0.03 0.02 0.02 0.02 0.02 0.02 0.02 0.03 0.03 0.03 0.02 0.03 0.04 0.04 0.05 0.06 0.08 0.09 0.11 0.11 0.09 0.08 0.09 0.08 0.06 0.06
0.05 0.07 0.09 0.12 0.13 0.13 0.10 0.07 0.06 0.05 0.04 0.04 0.03 0.03 0.03 0.04 0.04 0.04 0.02 0.02 0.02 0.02 0.01 0.02 0.02 0.02 0.02 0.01 0.03 0.04 0.05 0.06 0.07 0.07 0.07 0.08 0.09 0.08 0.07 0.07 0.07 0.05 0.04
0.04 0.04 0.06 0.07 0.08 0.06 0.05 0.04 0.04 0.03 0.03 0.02 0.02 0.02 0.03 0.03 0.02 0.02 0.02 0.01 0.02 0.01 0.01 0.02 0.02 0.02 0.01 0.01 0.02 0.03 0.04 0.06 0.07 0.06 0.05 0.06 0.06 0.05 0.05 0.05 0.06 0.06 0.06
0.02 0.03 0.03 0.03 0.03 0.03 0.03 0.04 0.04 0.03 0.03 0.03 0.02 0.03 0.03 0.02 0.02 0.02 0.02 0.01 0.01 0.01 0.01 0.02 0.02 0.02 0.02 0.02 0.02 0.02 0.04 0.05 0.06 0.05 0.04 0.04 0.03 0.03 0.02 0.03 0.04 0.06 0.06
0.02 0.02 0.02 0.02 0.02 0.03 0.03 0.03 0.03 0.03 0.04 0.04 0.04 0.04 0.03 0.02 0.02 0.02 0.02 0.02 0.02 0.02 0.02 0.02 0.02 0.02 0.01 0.01 0.02 0.02 0.02 0.03 0.04 0.04 0.03 0.03 0.02 0.02 0.02 0.02 0.03 0.05 0.05
0.01 0.01 0.01 0.01 0.01 0.01 0.01 0.01 0.01 0.02 0.02 0.03 0.03 0.02 0.02 0.01 0.02 0.02 0.02 0.02 0.02 0.02 0.02 0.02 0.02 0.02 0.02 0.01 0.01 0.01 0.01 0.02 0.03 0.03 0.03 0.02 0.01 0.02 0.03 0.02 0.02 0.03 0.04
0.02 0.02 0.01 0.01 0.01 0.01 0.01 0.02 0.02 0.02 0.02 0.03 0.04 0.03 0.02 0.02 0.03 0.03 0.03 0.03 0.02 0.01 0.01 0.02 0.02 0.02 0.02 0.01 0.01 0.01 0.01 0.01 0.02 0.02 0.02 0.02 0.02 0.02 0.02 0.02 0.02 0.02 0.03
0.02 0.03 0.02 0.01 0.01 0.01 0.02 0.03 0.02 0.02 0.03 0.04 0.04 0.04 0.03 0.03 0.03 0.03 0.03 0.03 0.02 0.02 0.02 0.02 0.02 0.02 0.02 0.03 0.03 0.02 0.02 0.01 0.02 0.02 0.02 0.02 0.02 0.02 0.02 0.02 0.02 0.02 0.02
0.02 0.02 0.02 0.02 0.01 0.01 0.02 0.03 0.02 0.02 0.03 0.04 0.03 0.03 0.03 0.02 0.01 0.01 0.01 0.01 0.02 0.02 0.02 0.01 0.02 0.02 0.02 0.03 0.05 0.04 0.03 0.03 0.02 0.02 0.02 0.01 0.01 0.02 0.02 0.02 0.02 0.02 0.03
0.01 0.02 0.03 0.02 0.02 0.02 0.02 0.02 0.02 0.02 0.03 0.04 0.03 0.04 0.04 0.03 0.01 0.01 0.01 0.01 0.01 0.02 0.01 0.01 0.01 0.03 0.03 0.06 0.06 0.05 0.05 0.04 0.03 0.02 0.02 0.01 0.01 0.01 0.01 0.01 0.01 0.02 0.03
0.01 0.02 0.03 0.03 0.02 0.02 0.02 0.03 0.03 0.03 0.03 0.03 0.04 0.03 0.03 0.02 0.02 0.01 0.01 0.01 0.02 0.02 0.02 0.01 0.01 0.04 0.06 0.06 0.06 0.04 0.03 0.03 0.02 0.02 0.02 0.01 0.00 0.01 0.01 0.01 0.01 0.01 0.02
0.01 0.01 0.02 0.04 0.03 0.03 0.03 0.04 0.04 0.04 0.03 0.03 0.04 0.04 0.02 0.02 0.02 0.02 0.02 0.02 0.02 0.02 0.02 0.02 0.02 0.05 0.07 0.06 0.04 0.03 0.02 0.02 0.02 0.02 0.02 0.02 0.01 0.01 0.01 0.01 0.01 0.02 0.02
0.01 0.02 0.02 0.03 0.03 0.03 0.03 0.04 0.05 0.05 0.04 0.03 0.04 0.03 0.02 0.02 0.02 0.02 0.02 0.03 0.03 0.03 0.03 0.04 0.05 0.06 0.06 0.06 0.05 0.03 0.03 0.03 0.02 0.02 0.02 0.02 0.02 0.01 0.02 0.02 0.02 0.02 0.02
0.02 0.02 0.02 0.03 0.03 0.03 0.03 0.04 0.05 0.04 0.04 0.04 0.04 0.04 0.03 0.02 0.02 0.03 0.04 0.03 0.03 0.04 0.03 0.04 0.04 0.04 0.05 0.05 0.04 0.04 0.04 0.03 0.03 0.02 0.02 0.01 0.01 0.01 0.02 0.02 0.02 0.02 0.01
0.03 0.03 0.03 0.04 0.04 0.03 0.04 0.06 0.06 0.04 0.04 0.04 0.04 0.04 0.04 0.03 0.03 0.03 0.03 0.03 0.03 0.02 0.03 0.03 0.03 0.04 0.05 0.04 0.02 0.03 0.04 0.03 0.02 0.02 0.01 0.00 0.01 0.01 0.01 0.01 0.01 0.01 0.01
0.04 0.05 0.05 0.05 0.04 0.05 0.04 0.06 0.06 0.04 0.03 0.03 0.03 0.03 0.03 0.03 0.03 0.03 0.03 0.02 0.02 0.02 0.03 0.02 0.02 0.02 0.03 0.03 0.01 0.01 0.03 0.02 0.02 0.02 0.01 0.00 0.01 0.01 0.01 0.01 0.01 0.01 0.01
0.02 0.04 0.06 0.05 0.06 0.06 0.04 0.06 0.07 0.05 0.03 0.02 0.02 0.01 0.01 0.02 0.03 0.03 0.03 0.03 0.02 0.02 0.02 0.02 0.01 0.02 0.01 0.01 0.01 0.01 0.01 0.02 0.02 0.01 0.01 0.01 0.01 0.01 0.01 0.01 0.01 0.01 0.02
0.03 0.03 0.05 0.05 0.07 0.06 0.04 0.05 0.04 0.04 0.03 0.02 0.01 0.01 0.01 0.01 0.01 0.01 0.01 0.01 0.02 0.02 0.01 0.01 0.01 0.01 0.01 0.00 0.00 0.01 0.02 0.02 0.03 0.01 0.00 0.01 0.01 0.01 0.01 0.02 0.02 0.03 0.03
0.02 0.03 0.04 0.05 0.06 0.05 0.04 0.04 0.03 0.03 0.02 0.02 0.01 0.01 0.01 0.01 0.01 0.01 0.01 0.01 0.01 0.01 0.01 0.01 0.00 0.00 0.00 0.00 0.00 0.00 0.01 0.02 0.02 0.02 0.01 0.01 0.02 0.02 0.02 0.03 0.04 0.04 0.03
0.02 0.03 0.04 0.04 0.05 0.06 0.05 0.04 0.03 0.01 0.01 0.00 0.00 0.00 0.00 0.00 0.01 0.00 0.00 0.00 0.00 0.00 0.00 0.00 0.00 0.00 0.00 0.00 0.00 0.00 0.00 0.00 0.01 0.01 0.02 0.02 0.02 0.02 0.03 0.04 0.04 0.03 0.03
MSLP
1012.73 1013.07 1013.42 1013.75 1014.06 1014.35 1014.61 1014.85 1015.07 1015.28 1015.49 1015.69 1015.90 1016.12 1016.36 1016.61 1016.88 1017.14 1017.39 1017.60 1017.76 1017.87 1017.94 1017.96 1017.98 1017.98 1018.00 1018.01 1018.01 1017.95 1017.81 1017.55 1017.15 1016.61 1015.96 1015.25 1014.56 1013.94 1013.49 1013.25 1013.24 1013.46 1013.86
1012.79 1013.17 1013.54 1013.89 1014.22 1014.50 1014.75 1014.98 1015.17 1015.36 1015.53 1015.71 1015.90 1016.10 1016.33 1016.57 1016.82 1017.07 1017.30 1017.51 1017.68 1017.80 1017.88 1017.92 1017.96 1017.99 1018.01 1018.03 1018.01 1017.92 1017.73 1017.40 1016.91 1016.29 1015.55 1014.76 1013.99 1013.32 1012.83 1012.57 1012.57 1012.80 1013.24
1012.73 1013.15 1013.56 1013.95 1014.29 1014.58 1014.82 1015.03 1015.21 1015.37 1015.53 1015.69 1015.87 1016.07 1016.28 1016.52 1016.77 1017.01 1017.25 1017.45 1017.62 1017.74 1017.83 1017.89 1017.94 1017.98 1018.00 1018.01 1017.97 1017.85 1017.60 1017.21 1016.67 1015.98 1015.18 1014.34 1013.53 1012.84 1012.34 1012.08 1012.08 1012.33 1012.78
1012.53 1013.00 1013.46 1013.88 1014.25 1014.56 1014.81 1015.01 1015.18 1015.34 1015.49 1015.65 1015.83 1016.04 1016.26 1016.51 1016.76 1017.01 1017.24 1017.44 1017.60 1017.73 1017.81 1017.87 1017.92 1017.95 1017.97 1017.96 1017.90 1017.75 1017.47 1017.05 1016.47 1015.75 1014.93 1014.08 1013.27 1012.58 1012.09 1011.85 1011.86 1012.11 1012.55
1012.23 1012.75 1013.27 1013.73 1014.14 1014.47 1014.74 1014.95 1015.12 1015.28 1015.45 1015.62 1015.82 1016.04 1016.29 1016.56 1016.82 1017.08 1017.30 1017.50 1017.64 1017.75 1017.82 1017.86 1017.89 1017.91 1017.91 1017.89 1017.81 1017.64 1017.35 1016.92 1016.34 1015.63 1014.83 1014.00 1013.23 1012.57 1012.11 1011.88 1011.89 1012.13 1012.54
1011.91 1012.48 1013.04 1013.56 1014.00 1014.37 1014.66 1014.89 1015.09 1015.26 1015.45 1015.64 1015.87 1016.12 1016.40 1016.68 1016.96 1017.22 1017.43 1017.61 1017.73 1017.80 1017.84 1017.86 1017.85 1017.85 1017.83 1017.79 1017.69 1017.52 1017.24 1016.82 1016.28 1015.61 1014.87 1014.10 1013.39 1012.78 1012.36 1012.15 1012.16 1012.37 1012.74
1011.68 1012.28 1012.88 1013.43 1013.92 1014.32 1014.64 1014.90 1015.12 1015.33 1015.54 1015.76 1016.02 1016.30 1016.60 1016.89 1017.18 1017.42 1017.62 1017.76 1017.84 1017.88 1017.87 1017.84 1017.80 1017.76 1017.72 1017.66 1017.56 1017.39 1017.13 1016.76 1016.27 1015.67 1015.00 1014.32 1013.69 1013.15 1012.78 1012.59 1012.59 1012.76 1013.06
1011.62 1012.23 1012.85 1013.43 1013.94 1014.38 1014.73 1015.02 1015.27 1015.50 1015.74 1015.99 1016.27 1016.57 1016.88 1017.18 1017.45 1017.68 1017.84 1017.94 1017.98 1017.96 1017.90 1017.82 1017.74 1017.66 1017.59 1017.52 1017.42 1017.26 1017.03 1016.71 1016.28 1015.76 1015.19 1014.61 1014.06 1013.60 1013.28 1013.11 1013.09 1013.21 1013.43
1011.76 1012.36 1012.98 1013.57 1014.10 1014.55 1014.93 1015.25 1015.53 1015.79 1016.05 1016.32 1016.62 1016.93 1017.23 1017.52 1017.76 1017.95 1018.08 1018.13 1018.11 1018.04 1017.93 1017.81 1017.69 1017.58 1017.48 1017.39 1017.28 1017.14 1016.94 1016.66 1016.30 1015.86 1015.38 1014.89 1014.44 1014.05 1013.78 1013.62 1013.59 1013.65 1013.80
1012.10 1012.68 1013.28 1013.86 1014.38 1014.84 1015.23 1015.57 1015.87 1016.15 1016.43 1016.72 1017.02 1017.32 1017.61 1017.87 1018.07 1018.22 1018.30 1018.30 1018.24 1018.13 1017.98 1017.82 1017.67 1017.53 1017.41 1017.30 1017.19 1017.05 1016.86 1016.62 1016.31 1015.95 1015.56 1015.16 1014.78 1014.46 1014.23 1014.09 1014.04 1014.05 1014.12
1012.61 1013.15 1013.70 1014.23 1014.73 1015.17 1015.56 1015.91 1016.23 1016.53 1016.83 1017.12 1017.41 1017.70 1017.96 1018.17 1018.34 1018.44 1018.48 1018.44 1018.35 1018.21 1018.05 1017.87 1017.70 1017.55 1017.42 1017.29 1017.16 1017.02 1016.84 1016.62 1016.35 1016.04 1015.71 1015.38 1015.08 1014.82 1014.63 1014.50 1014.43 1014.40 1014.40
1013.22 1013.68 1014.15 1014.62 1015.07 1015.48 1015.86 1016.21 1016.54 1016.85 1017.16 1017.45 1017.74 1018.00 1018.22 1018.40 1018.52 1018.58 1018.59 1018.53 1018.42 1018.28 1018.12 1017.96 1017.79 1017.64 1017.50 1017.36 1017.22 1017.06 1016.87 1016.66 1016.41 1016.14 1015.86 1015.59 1015.34 1015.14 1014.98 1014.87 1014.79 1014.73 1014.67
1013.83 1014.21 1014.59 1014.97 1015.35 1015.71 1016.06 1016.40 1016.74 1017.06 1017.37 1017.67 1017.94 1018.17 1018.36 1018.50 1018.59 1018.62 1018.60 1018.54 1018.45 1018.33 1018.19 1018.06 1017.92 1017.79 1017.65 1017.50 1017.35 1017.17 1016.97 1016.74 1016.50 1016.25 1016.00 1015.78 1015.58 1015.43 1015.30 1015.21 1015.12 1015.03 1014.93
1014.41 1014.69 1014.96 1015.24 1015.53 1015.83 1016.14 1016.47 1016.80 1017.13 1017.45 1017.74 1018.00 1018.21 1018.37 1018.47 1018.53 1018.54 1018.52 1018.47 1018.40 1018.32 1018.24 1018.15 1018.05 1017.95 1017.82 1017.68 1017.51 1017.31 1017.09 1016.85 1016.60 1016.36 1016.14 1015.95 1015.79 1015.67 1015.58 1015.50 1015.42 1015.32 1015.20
1014.91 1015.08 1015.25 1015.42 1015.61 1015.84 1016.11 1016.41 1016.74 1017.07 1017.39 1017.68 1017.93 1018.12 1018.25 1018.33 1018.36 1018.36 1018.34 1018.32 1018.28 1018.25 1018.22 1018.19 1018.15 1018.08 1017.97 1017.84 1017.66 1017.45 1017.20 1016.94 1016.69 1016.45 1016.24 1016.07 1015.94 1015.85 1015.79 1015.73 1015.66 1015.56 1015.43
1015.32 1015.40 1015.46 1015.52 1015.63 1015.79 1016.02 1016.29 1016.61 1016.94 1017.25 1017.54 1017.77 1017.94 1018.05 1018.11 1018.13 1018.12 1018.11 1018.10 1018.11 1018.13 1018.15 1018.17 1018.17 1018.14 1018.07 1017.94 1017.75 1017.53 1017.27 1016.99 1016.72 1016.47 1016.26 1016.10 1015.99 1015.92 1015.87 1015.82 1015.77 1015.68 1015.55
1015.65 1015.65 1015.62 1015.60 1015.64 1015.74 1015.92 1016.17 1016.47 1016.79 1017.11 1017.38 1017.60 1017.76 1017.84 1017.88 1017.88 1017.87 1017.86 1017.87 1017.90 1017.96 1018.02 1018.09 1018.13 1018.13 1018.07 1017.95 1017.77 1017.53 1017.26 1016.96 1016.67 1016.41 1016.20 1016.03 1015.91 1015.84 1015.79 1015.74 1015.69 1015.61 1015.50
1015.90 1015.86 1015.77 1015.70 1015.68 1015.74 1015.89 1016.12 1016.40 1016.72 1017.02 1017.28 1017.49 1017.62 1017.69 1017.71 1017.69 1017.66 1017.65 1017.66 1017.71 1017.78 1017.88 1017.97 1018.03 1018.05 1018.01 1017.90 1017.71 1017.47 1017.18 1016.86 1016.55 1016.27 1016.02 1015.83 1015.68 1015.58 1015.51 1015.45 1015.39 1015.31 1015.22
1016.09 1016.04 1015.94 1015.85 1015.80 1015.84 1015.98 1016.19 1016.46 1016.76 1017.05 1017.30 1017.49 1017.60 1017.65 1017.64 1017.61 1017.56 1017.53 1017.54 1017.58 1017.65 1017.75 1017.85 1017.92 1017.95 1017.91 1017.80 1017.61 1017.36 1017.06 1016.72 1016.38 1016.06 1015.77 1015.53 1015.33 1015.18 1015.06 1014.96 1014.88 1014.79 1014.71
1016.22 1016.20 1016.13 1016.05 1016.02 1016.06 1016.19 1016.39 1016.66 1016.94 1017.22 1017.45 1017.62 1017.71 1017.74 1017.71 1017.65 1017.58 1017.53 1017.51 1017.53 1017.59 1017.68 1017.76 1017.83 1017.85 1017.81 1017.70 1017.52 1017.26 1016.94 1016.59 1016.21 1015.85 1015.50 1015.19 1014.92 1014.68 1014.49 1014.34 1014.21 1014.11 1014.03
1016.31 1016.35 1016.33 1016.30 1016.30 1016.37 1016.50 1016.71 1016.97 1017.24 1017.50 1017.71 1017.86 1017.93 1017.94 1017.88 1017.80 1017.70 1017.63 1017.58 1017.57 1017.60 1017.66 1017.72 1017.78 1017.79 1017.75 1017.64 1017.45 1017.19 1016.86 1016.49 1016.09 1015.67 1015.26 1014.87 1014.51 1014.19 1013.91 1013.68 1013.50 1013.36 1013.28
1016.36 1016.48 1016.54 1016.57 1016.62 1016.73 1016.88 1017.10 1017.35 1017.60 1017.84 1018.03 1018.16 1018.21 1018.19 1018.11 1018.00 1017.88 1017.77 1017.69 1017.65 1017.65 1017.67 1017.71 1017.74 1017.75 1017.70 1017.59 1017.42 1017.16 1016.83 1016.45 1016.01 1015.55 1015.08 1014.61 1014.17 1013.76 1013.39 1013.09 1012.85 1012.68 1012.59
1016.39 1016.59 1016.73 1016.83 1016.95 1017.09 1017.27 1017.49 1017.73 1017.97 1018.18 1018.34 1018.44 1018.47 1018.42 1018.32 1018.18 1018.04 1017.90 1017.78 1017.71 1017.67 1017.66 1017.68 1017.69 1017.69 1017.64 1017.54 1017.38 1017.13 1016.81 1016.43 1015.98 1015.49 1014.98 1014.45 1013.94 1013.45 1013.02 1012.65 1012.36 1012.16 1012.06
1016.39 1016.67 1016.89 1017.06 1017.23 1017.41 1017.62 1017.84 1018.07 1018.28 1018.46 1018.59 1018.65 1018.64 1018.57 1018.44 1018.27 1018.10 1017.92 1017.78 1017.67 1017.60 1017.56 1017.56 1017.56 1017.55 1017.51 1017.42 1017.27 1017.05 1016.75 1016.38 1015.94 1015.44 1014.91 1014.35 1013.80 1013.28 1012.81 1012.40 1012.09 1011.87 1011.77
1016.39 1016.73 1017.01 1017.24 1017.46 1017.67 1017.89 1018.10 1018.31 1018.50 1018.64 1018.72 1018.74 1018.69 1018.58 1018.42 1018.22 1018.01 1017.81 1017.63 1017.48 1017.38 1017.32 1017.29 1017.28 1017.27 1017.23 1017.16 1017.03 1016.84 1016.57 1016.22 1015.81 1015.34 1014.82 1014.28 1013.73 1013.21 1012.74 1012.34 1012.03 1011.82 1011.72
1016.39 1016.76 1017.08 1017.36 1017.61 1017.84 1018.06 1018.27 1018.45 1018.59 1018.69 1018.73 1018.70 1018.60 1018.45 1018.24 1018.01 1017.76 1017.52 1017.31 1017.13 1017.00 1016.91 1016.86 1016.84 1016.81 1016.78 1016.72 1016.61 1016.44 1016.21 1015.91 1015.54 1015.11 1014.64 1014.15 1013.66 1013.19 1012.76 1012.40 1012.13 1011.95 1011.87
Thickness
5734 5731 5726 5723 5720 5716 5712 5709 5705 5701 5698 5696 5693 5691 5688 5686 5684 5681 5678 5677 5674 5673 5671 5672 5671 5671 5671 5669 5669 5668 5669 5669 5669 5668 5667 5668 5668 5667 5668 5669 5670 5670 5670
5728 5723 5720 5718 5714 5710 5707 5703 5700 5697 5693 5690 5687 5684 5682 5680 5677 5675 5671 5669 5667 5665 5666 5664 5665 5665 5664 5662 5662 5662 5662 5663 5663 5661 5660 5659 5659 5659 5661 5662 5661 5661 5662
5725 5719 5716 5713 5710 5705 5702 5699 5694 5691 5687 5684 5682 5677 5674 5672 5670 5667 5665 5662 5660 5658 5657 5656 5657 5656 5657 5656 5655 5655 5654 5655 5655 5655 5653 5652 5653 5652 5652 5652 5652 5652 5653
5723 5717 5712 5708 5704 5701 5698 5693 5689 5684 5681 5678 5675 5671 5667 5665 5662 5660 5658 5655 5653 5651 5650 5648 5648 5648 5649 5648 5649 5649 5648 5647 5648 5649 5648 5648 5648 5646 5644 5644 5644 5644 5645
5720 5713 5708 5703 5699 5696 5692 5687 5682 5678 5674 5672 5668 5664 5661 5658 5656 5653 5651 5649 5647 5644 5642 5641 5640 5640 5641 5640 5639 5639 5640 5641 5641 5642 5642 5641 5641 5642 5640 5637 5636 5636 5638
5714 5708 5703 5699 5693 5690 5685 5681 5676 5671 5668 5665 5661 5657 5654 5651 5648 5646 5644 5643 5641 5638 5636 5635 5633 5632 5632 5632 5632 5631 5632 5633 5633 5634 5635 5635 5634 5635 5635 5633 5631 5630 5630
5708 5702 5697 5693 5687 5682 5678 5673 5668 5664 5661 5658 5654 5651 5647 5644 5642 5640 5638 5636 5634 5632 5628 5628 5626 5626 5625 5625 5625 5625 5625 5626 5625 5626 5628 5628 5628 5629 5629 5628 5626 5624 5623
5703 5698 5693 5688 5682 5676 5670 5666 5662 5658 5654 5651 5647 5644 5641 5639 5636 5632 5631 5628 5627 5624 5621 5620 5619 5619 5618 5618 5618 5620 5619 5619 5619 5620 5620 5620 5621 5622 5622 5622 5621 5619 5618
5696 5691 5687 5682 5676 5670 5665 5661 5656 5651 5648 5644 5640 5636 5633 5630 5627 5624 5623 5621 5617 5616 5614 5613 5612 5611 5611 5611 5611 5613 5612 5612 5613 5614 5614 5613 5614 5614 5616 5616 5616 5616 5615
5689 5684 5680 5675 5670 5665 5660 5656 5651 5646 5642 5638 5634 5630 5626 5622 5619 5617 5613 5611 5609 5607 5607 5606 5605 5604 5604 5604 5604 5606 5606 5606 5605 5606 5605 5606 5608 5609 5610 5611 5612 5613 5613
5683 5677 5673 5669 5664 5659 5655 5650 5646 5641 5636 5632 5627 5622 5618 5615 5613 5610 5606 5603 5601 5599 5599 5598 5598 5598 5597 5597 5597 5599 5599 5599 5599 5599 5599 5599 5600 5602 5604 5605 5606 5607 5608
5676 5672 5667 5663 5659 5654 5650 5645 5640 5636 5631 5626 5620 5616 5612 5609 5606 5603 5599 5596 5594 5593 5592 5592 5592 5592 5592 5591 5592 5592 5592 5592 5592 5592 5593 5594 5595 5595 5597 5599 5600 5600 5600
5669 5666 5662 5658 5653 5649 5644 5639 5634 5629 5625 5620 5615 5610 5606 5602 5599 5595 5592 5590 5588 5587 5586 5586 5585 5585 5585 5585 5585 5586 5585 5585 5586 5586 5587 5588 5589 5589 5591 5592 5593 5594 5595
5663 5659 5655 5652 5647 5643 5638 5633 5628 5623 5619 5614 5609 5604 5600 5596 5592 5589 5587 5584 5583 5581 5580 5579 5579 5579 5579 5579 5579 5580 5580 5580 5580 5580 5581 5582 5583 5583 5585 5586 5587 5588 5589
5657 5653 5649 5646 5641 5636 5632 5627 5622 5617 5613 5609 5604 5599 5594 5590 5587 5584 5581 5579 5577 5576 5574 5574 5573 5573 5573 5572 5572 5574 5575 5575 5575 5575 5576 5576 5575 5575 5577 5580 5581 5582 5584
5653 5649 5645 5641 5636 5631 5627 5622 5617 5612 5608 5603 5599 5594 5589 5585 5582 5579 5576 5574 5572 5570 5569 5569 5568 5568 5567 5563 5562 5565 5569 5570 5571 5571 5572 5573 5573 5571 5571 5572 5573 5575 5579
5649 5645 5641 5637 5632 5627 5623 5618 5613 5608 5604 5599 5594 5590 5585 5581 5578 5576 5573 5570 5568 5566 5564 5564 5563 5562 5559 5557 5558 5559 5564 5566 5566 5567 5568 5571 5571 5570 5571 5570 5569 5571 5572
5645 5641 5637 5633 5628 5625 5620 5615 5610 5605 5600 5595 5591 5586 5582 5578 5574 5572 5570 5567 5565 5563 5561 5560 5559 5559 5556 5553 5555 5557 5561 5564 5564 5565 5565 5565 5566 5567 5565 5568 5570 5571 5572
5642 5637 5633 5629 5625 5621 5616 5611 5606 5601 5596 5591 5587 5583 5579 5575 5572 5570 5566 5564 5562 5560 5559 5559 5558 5557 5555 5552 5553 5553 5561 5562 5563 5563 5563 5563 5563 5559 5559 5563 5567 5569 5569
5637 5633 5630 5626 5621 5617 5613 5608 5603 5598 5593 5589 5585 5581 5576 5573 5570 5568 5565 5563 5561 5560 5559 5558 5557 5556 5555 5551 5552 5552 5560 5561 5563 5563 5562 5559 5559 5557 5556 5561 5564 5566 5568
5633 5630 5627 5623 5618 5614 5610 5605 5600 5596 5592 5588 5583 5579 5575 5571 5569 5566 5564 5562 5561 5560 5558 5557 5556 5555 5554 5552 5551 5551 5556 5561 5562 5563 5564 5561 5556 5555 5555 5557 5561 5562 5563
5630 5627 5623 5619 5614 5611 5607 5602 5598 5594 5590 5586 5582 5577 5574 5572 5569 5566 5564 5563 5561 5560 5559 5557 5557 5557 5555 5553 5552 5551 5552 5553 5558 5560 5562 5559 5555 5555 5555 5557 5559 5559 5560
5628 5625 5621 5616 5612 5609 5605 5601 5596 5593 5589 5585 5581 5577 5574 5571 5569 5567 5566 5564 5562 5563 5562 5561 5561 5560 5559 5557 5553 5552 5552 5552 5555 5558 5555 5555 5554 5555 5558 5558 5559 5560 5565
5626 5622 5619 5615 5611 5607 5604 5600 5596 5592 5588 5585 5581 5577 5575 5573 5570 5568 5568 5567 5566 5565 5564 5563 5563 5563 5562 5561 5559 5558 5557 5555 5557 5558 5558 5556 5556 5557 5558 5560 5563 5565 5568
5625 5621 5618 5614 5611 5607 5603 5600 5596 5592 5589 5585 5582 5580 5578 5576 5572 5571 5569 5568 5566 5563 5561 5563 5563 5563 5562 5558 5552 5552 5557 5556 5557 5556 5561 5563 5565 5566 5568 5568 5568 5568 5570
5625 5621 5618 5615 5611 5607 5604 5601 5597 5594 5590 5588 5585 5585 5583 5579 5577 5575 5573 5567 5564 5561 5558 5556 5555 5559 5556 5554 5552 5551 5551 5551 5551 5553 5562 5565 5566 5567 5569 5570 5570 5570 5571